Regional Weather Roundup
Issued by NWS Charleston, SC

Current Version | Previous Version | Graphics & Text | Print | Product List | Glossary On
Versions: 1 2 3 4 5 6 7 8 9 10 11 12 13 14 15 16 17 18 19 20 21 22 23 24 25 26 27 28 29 30 31 32 33 34 35 36 37 38 39 40 41 42 43 44 45 46 47 48 49 50
411
ASUS42 KCHS 110112
RWRCHS

REGIONAL WEATHER ROUNDUP
NATIONAL WEATHER SERVICE CHARLESTON SC
800 PM EST SAT DEC 10 2016

NOTE: "FAIR" INDICATES FEW OR NO CLOUDS BELOW 12,000 FEET WITH NO
SIGNIFICANT WEATHER AND/OR OBSTRUCTIONS TO VISIBILITY.

NOT ALL STATIONS ARE QUALITY CONTROLLED. USE DATA WITH CAUTION...
ESPECIALLY DEWPOINT OBSERVATIONS.

SCZ027-030-031-034>040-042>050-110200-
...SOUTHEAST SOUTH CAROLINA...

CITY           SKY/WX    TMP DP  RH WIND       PRES   REMARKS
N CHARLESTON   CLEAR     36  28  73 NE5       30.49S WCI  32
WATERFRONT PRK   N/A     46  29  51 NE9       30.47S
MOUNT PLEASANT NOT AVBL
JOHNS ISLAND   FAIR      37  30  75 CALM      30.48F
PINOPOLIS        N/A     45  27  49 E9        30.42S
MONCKS CORNER  FAIR      34  28  80 CALM      30.50S HAZE
SUMMERVILLE    FAIR      34  32  93 CALM      30.51R
BEAUFORT MCAS  CLEAR     43  26  51 NE6       30.48R
BEAUFORT ARPT  FAIR      45  32  61 NE7       30.47S HAZE
HILTON HEAD IS CLEAR     45  30  57 N8        30.48R
WALTERBORO     CLEAR     34  30  86 CALM      30.50R
ALLENDALE      FAIR      37  28  70 CALM      30.48R

...SOUTHERN MIDLANDS AND PEE DEE...

CITY           SKY/WX    TMP DP  RH WIND       PRES   REMARKS
GEORGETOWN     NOT AVBL
KINGSTREE      FAIR      30  27  86 CALM      30.52R
ORANGEBURG     CLEAR     32  27  81 CALM      30.50R
BARNWELL       NOT AVBL
AIKEN          FAIR      32  27  80 CALM      30.52R
MANNING        FAIR      30  25  80 CALM      30.51R
COLUMBIA       CLEAR     33  24  69 CALM      30.50R
SUMTER         CLEAR     31  23  72 CALM      30.49R
FLORENCE       CLEAR     31  24  75 CALM      30.52R
MYRTLE BEACH   CLEAR     34  23  64 N7        30.52S WCI  28
N MYRTLE BEACH CLEAR     33  28  81 CALM      30.51S

$$

GAZ063-065-086>088-099>101-113>116-118-119-134>141-150-110200-
...SOUTHEAST GEORGIA...

CITY           SKY/WX    TMP DP  RH WIND       PRES   REMARKS
SAVANNAH ARPT  CLEAR     42  26  53 NE5       30.47R
HUNTER AAF     CLEAR     45  33  64 CALM      30.44R
FORT STEWART   CLEAR     36  32  84 CALM      30.44R
STATESBORO     CLEAR     36  31  82 CALM      30.47S
SYLVANIA       CLEAR    N/A N/A N/A CALM      30.48R
CLAXTON        FAIR      36  35  96 CALM      30.47R

...CSRA...CENTRAL AND FAR SOUTHEAST GEORGIA...

CITY           SKY/WX    TMP DP  RH WIND       PRES   REMARKS
THOMSON        CLEAR     33  30  89 CALM      30.52S
AUGUSTA-BUSH   CLEAR     35  25  66 CALM      30.49R
AUGUSTA-DANIEL CLEAR     41  23  48 N3        30.49R
SWAINSBORO     FAIR      41  28  60 E5        30.47S
VIDALIA        CLEAR     39  32  75 NE5       30.46S WCI  36
EASTMAN        FAIR      36  20  53 CALM      30.47F
HAZLEHURST     FAIR      44  25  47 NE3       30.43S
ALMA           CLEAR     37  30  75 CALM      30.44R
WAYCROSS       CLEAR     46  40  78 E6        30.44R
JESUP          FAIR      41  39  93 CALM      30.45S
BAXLEY         FAIR      39  34  81 CALM      30.44R
BRUNSWICK      CLEAR     48  43  81 N8        30.44S
SAINT SIMONS   CLEAR     51  43  74 NE10      30.42S

$$

SCZ027-028-034-036>038-045-046-048>050-GAZ119-141-110200-
...LAKE AND SUPPLEMENTAL COASTAL OBSERVATIONS...

STATION/POSITION TIME  TEMP    WIND        PRES    WAVE   SWELL
                       AIR SEA DIR/SP/G            HT/PER HT/PER/DIR
                 (UTC) (F)     (DEG/KT/KT) (MB)    (FT/S) (FT/S/D)
WINYAH BAY       NOT AVBL
LAKE MURRAY      0020   40      10/  2/  2 1031.8
ACE BASIN NERRS  2345   39        CALM     1032.0
FORT PULASKI     0048   50 59   50/  9/ 11 1031.7R
SAPELO ISLAND    0000   47      30/  6     1031.0

$$

ANZ835-935-AMZ111-154-330-350-352-354-370-450-454-472-110200-
...C-MAN AND BUOY OBSERVATIONS...

STATION/POSITION TIME  TEMP    WIND        PRES    WAVE   SWELL
                       AIR SEA DIR/SP/G            HT/PER HT/PER/DIR
                 (UTC) (F)     (DEG/KT/KT) (MB)    (FT/S) (FT/S/D)
BUOY 41004       2350   51 73   20/ 12/ 16 1031.7    3/ 5   2/ 70/ 9
BUOY 41008       0050   55 62   50/ 17/ 19 1030.0R   4/ 6   2/100/ 8
FOLLY BEACH CMAN 0000   48      20/ 11/ 12 1032.7R
CAPERS NEARSHORE NOT AVBL
FRIPP NEARSHORE  0008   51 60   50/ 12/ 17 1031.3S


STATION/POSITION TIME  TEMP    WIND        PRES    WAVE   SWELL
                       AIR SEA DIR/SP/G            HT/PER HT/PER/DIR
                 (UTC) (F)     (DEG/KT/KT) (MB)    (FT/S) (FT/S/D)
5E ST. MARYS GA  0100      63                N/A     5/ 6
FRYING PAN BUOY  0050   47 72   10/  8/ 12 1032.8R   2/ 8   2/ 60/ 8
BUOY 41025       0050   44 77  330/ 12/ 17 1032.9R   4/ 9   3/ 60/ 9
CAPE LOOKOUT NC  0000   42     330/ 10/ 12 1032.6R
BUOY 41002       2350   61 73  360/ 10/ 16 1029.7    4/ 9   3/ 50/ 9
BUOY 41010       NOT AVBL
ST AUGUSTINE FL  0100   61 64   20/ 18/ 20 1028.6F


$$




USA.gov is the U.S. government's official web portal to all federal, state and local government web resources and services.